Regional Weather Roundup
Issued by NWS

Home | Current Version | Previous Version | Text Only | Print | Product List | Glossary Off
Versions: 1 2 3 4 5 6 7 8 9 10 11 12 13 14 15 16 17 18 19 20 21 22 23 24 25 26 27 28

000
ASUS45 KBOU 151810
RWRCO

WEATHER ROUNDUP FOR COLORADO
NATIONAL WEATHER SERVICE DENVER/BOULDER CO
1100 AM MST FRI DEC 15 2017

NOTE: "FAIR" INDICATES FEW OR NO CLOUDS BELOW 12000 FEET WITH NO
SIGNIFICANT WEATHER AND/OR OBSTRUCTIONS TO VISIBILITY.

COZ001>005-013-030-031-151900-
...NORTHWEST COLORADO...

CITY           SKY/WX    TMP DP  RH WIND       PRES   REMARKS
CRAIG          FAIR      26  15  63 CALM      30.28F
HAYDEN         FAIR      27  14  58 E8        30.30F WCI  19
MEEKER         FAIR      31  15  52 CALM      30.29F
RABBIT EARS PA FAIR      23   3  42 W7G21     30.26F WCI  15
STEAMBOAT SPGS FAIR      24  14  67 CALM      30.29F
WALDEN         FAIR      30   9  40 S12G18    30.25F WCI  21
$$

COZ006>008-011-151900-
...WEST CENTRAL VALLEYS...

CITY           SKY/WX    TMP DP  RH WIND       PRES   REMARKS
GRAND JUNCTION FAIR      36  13  38 E5        30.36F
MONTROSE       FAIR      34  12  40 SE5       30.38F WCI  30
EAGLE          FAIR      18   9  68 W3        30.41F
RIFLE          FAIR      29  11  47 CALM      30.38F
DELTA          FAIR      33   8  35 CALM      30.38F
NUCLA          FAIR      32   3  29 CALM      30.40S
$$

COZ017>023-064>068-151900-
...SOUTHWEST COLORADO...

CITY           SKY/WX    TMP DP  RH WIND       PRES   REMARKS
DURANGO        FAIR      36  19  50 CALM      30.32F
CORTEZ         FAIR      37  12  35 CALM      30.34F
PAGOSA SPRINGS FAIR      35   9  33 CALM      30.31F
TELLURIDE      FAIR      38 -15   9 CALM      30.34F
WOLF CREEK PAS FAIR      28 -13  16 NW6       30.37F WCI  22
$$

COZ009-010-012-014-032>034-037-058>063-151900-
...CENTRAL COLORADO...

CITY           SKY/WX    TMP DP  RH WIND       PRES   REMARKS
ASPEN          FAIR      28   9  44 CALM      30.30F
BUENA VISTA    FAIR      31   4  31 SE5       30.23F WCI  27
COPPER MTN     NOT AVBL
BERTHOUD PASS  FAIR      14   3  62 NW22G30   30.27S WCI  -4
COTTONWOOD PAS FAIR      37  -4  17 SE7       30.23S
GUNNISON       FAIR      20   6  55 CALM      30.37F
KREMMLING      FAIR      21  10  63 CALM      30.37F
LEADVILLE      FAIR      32  -3  22 N5        30.27S WCI  27
MONARCH PASS   FAIR      18  -4  38 SW31G37   30.38R WCI  -2
SALIDA         FAIR      44  -2  14 SW14      30.29F
SUNLIGHT       FAIR      27  -4  26 SW6       30.36F WCI  20
WILKERSON PASS FAIR      30  -8  19 NW12G31   30.24S WCI  21
$$

COZ069>075-151900-
...SAN LUIS VALLEY/SANGRE DE CRISTO MOUNTAINS...

CITY           SKY/WX    TMP DP  RH WIND       PRES   REMARKS
ALAMOSA        FAIR      29  11  47 CALM      30.31F
DEL NORTE      FAIR      29   7  39 E5        30.30F WCI  23
LA VETA PASS   FAIR      23   5  46 SW28G38     N/A  WCI   6
SAGUACHE       FAIR      30  10  43 SE6       30.31F WCI  24
$$

COZ035-036-038>040-151900-
...NORTHERN COLORADO FRONT RANGE...

CITY           SKY/WX    TMP DP  RH WIND       PRES   REMARKS
DENVER INTL AP FAIR      55   6  14 SW13      30.00F
DMNS CITY PARK NOT AVBL
AURORA         MOSUNNY   53  11  19 SW9       30.02F
FRONT RANGE AP MOSUNNY   55   7  14 SW12      30.02F
ERIE MUNI ARPT FAIR      47  28  46 N6        30.04F
BOULDER MUN AP FAIR      52  25  35 N3        29.99F
CENTENNIAL     FAIR      51  12  21 SW12      30.02F
BROOMFIELD     MOSUNNY   55   3  12 W36       30.00F
FORT COLLINS   FAIR      40  22  48 CALM      30.00F
LONGMONT       FAIR      44  17  34 CALM      30.01F
$$

COZ041-046-047-076>085-087-088-151900-
...PIKES PEAK/PALMER DIVIDE AND SOUTHERN FOOTHILLS...

CITY           SKY/WX    TMP DP  RH WIND       PRES   REMARKS
COLO. SPRINGS  FAIR      50  -2  11 CALM      30.07F
A. F. ACADEMY  FAIR      50   2  14 S8        30.06F
SCHRIEVER AFB  FAIR      50  -1  12 SW3       30.07F
CHEYENNE MTN   FAIR      47  13  26 SE9       30.02F
ELLICOTT         N/A    N/A N/A N/A CALM      30.05F
FALCON         FAIR      50   1  13 SW6       30.09S
FORT CARSON    FAIR      49  14  25 S6        30.05F
LIMON          FAIR      51   7  16 SW14      30.03F
MONUMENT HILL  FAIR      46  10  23 SW6       30.08F
CANON CITY     FAIR      52   9  17 W18G28    30.08F
WALSENBURG     FAIR      54   5  14 W24G31    30.09F
TRINIDAD       FAIR      51   8  17 CALM      30.10F
$$

COZ042>045-048>051-090-091-151900-
...NORTHEAST COLORADO...

CITY           SKY/WX    TMP DP  RH WIND       PRES   REMARKS
GREELEY ARPT   FAIR      34  18  52 CALM      30.02F
AKRON          FAIR      45  17  32 W13       30.00F
BURLINGTON     FAIR      53   9  17 SW16      30.03F
WRAY           FAIR      54   9  16 SW8G16    29.99F
YUMA           FAIR      50  12  22 W10       29.99F
STERLING       FAIR      39  23  52 S9        29.99F
HOLYOKE        FAIR      54  12  19 W15G23    29.98F
FORT MORGAN    FAIR      37  21  52 W6        30.01F
$$

COZ086-089-092>099-151900-
...SOUTHEAST COLORADO...

CITY           SKY/WX    TMP DP  RH WIND       PRES   REMARKS
PUEBLO         FAIR      41  24  51 VRB5      30.06F
LA JUNTA       FAIR      45  24  43 SW8       30.08F
LAMAR          FAIR      41  25  53 W9        30.08F
SPRINGFIELD      N/A     49  27  42 SW8       30.09F
$$




USA.gov is the U.S. government's official web portal to all federal, state and local government web resources and services.